Flag for Bulgaria Weather past 2 weeks in Sofia, Bulgaria

Now
70 °F

Broken clouds.


Feels Like: 70 °F
Forecast: 58 / 78 °F
Wind: 6 mph from Northwest

Location: Plovdiv Airport

Current Time: Jul 23, 2014 at 11:28:38 AM

Latest Report: Jul 23, 2014 at 11:00 AM


Visibility: N/A

Pressure: 29.80 "Hg

Humidity: 83%

Dew point: 64 °F

Location of SofiaLocation

Historic Weather in Sofia — Graph

°F

Sofia temperature yesterday

Maximum temperature yesterday: 82 °F (at 1:00 PM)
Minimum temperature yesterday: 63 °F (at 7:00 AM)
Average temperature yesterday: 71 °F

Past Weeks' High & Low Weather Summary

 TemperatureHumidityPressure
High91 °F (Jul 10, 6:00 PM)100% (Jul 9, 2:00 AM)30.01 "Hg (Jul 9, 2:00 AM)
Low59 °F (Jul 12, 4:00 AM)33% (Jul 13, 3:00 PM)29.53 "Hg (Jul 10, 7:00 PM)
Average74 °F71%29.86 "Hg
* Reported Jul 8 9:00 AM — Jul 23 9:00 AM, Sofia, Weather by CustomWeather, © 2014

Note: Actual official high and low records may vary slightly from our data, if they occured in-between our weather recording intervals... More about our weather records

Advertising

Sofia weather history for previous 24 hours

 ConditionsComfort  
Time TempWeatherWind HumidityBarometerVisibility
9:00 AM
Jul 23
66 °FPartly sunny.3 mph94%29.80 "HgN/A
8:00 AM64 °FScattered clouds.1 mph100%29.77 "HgN/A
7:00 AM63 °FStrong thunderstorms. Partly cloudy.1 mph100%29.77 "Hg1 mi
6:00 AM63 °FFog.1 mph100%29.80 "Hg3 mi
5:00 AM63 °FLight rain. Passing clouds.1 mph100%29.80 "Hg3 mi
4:00 AM63 °FPassing clouds.3 mph100%29.80 "Hg4 mi
3:00 AM64 °FPassing clouds.6 mph94%29.80 "HgN/A
2:00 AM63 °FLight rain. Mostly cloudy.10 mph100%29.80 "HgN/A
8:00 PM
Jul 22
66 °FLight rain. Broken clouds.8 mph94%29.83 "HgN/A
7:00 PM68 °FThunderstorms. More clouds than sun.3 mph94%29.89 "HgN/A
6:00 PM68 °FLight rain. More clouds than sun.8 mph100%29.89 "HgN/A
5:00 PM68 °FRain. More clouds than sun.10 mph100%29.86 "Hg6 mi
4:00 PM68 °FThunderstorms. More clouds than sun.8 mph100%29.86 "Hg3 mi
3:00 PM68 °FStrong thunderstorms. More clouds than sun.17 mph100%29.83 "Hg2 mi
2:00 PM81 °FPartly sunny.13 mph62%29.80 "HgN/A
1:00 PM82 °FPartly sunny.3 mph58%29.80 "HgN/A
12:00 PM81 °FSunny.1 mph62%29.80 "Hg10 mi
11:00 AM79 °FSunny.3 mph65%29.83 "Hg10 mi
Weather by CustomWeather, © 2014

See weather overviewHow to use our weather pages